Wiscasset, ME

7:37 AM EST on December 12, 2017 (GMT -0500)
Wiscasset

Weather History for KIWI - January, 2013

Change the Weather History Date:

Wednesday, January 23, 2013

  Actual Average Record
Temperature  
Mean Temperature 4 °F -  
Max Temperature 7 °F 25 °F 46 °F (1997)
Min Temperature 0 °F 7 °F -13 °F (2000)
Degree Days  
Heating Degree Days 62    
Moisture  
Dew Point -19 °F    
Average Humidity 36    
Maximum Humidity 43    
Minimum Humidity 28    
Precipitation  
Precipitation 0.00 in - - ()
Sea Level Pressure  
Sea Level Pressure 30.06 in    
Wind  
Wind Speed 5 mph (WNW)    
Max Wind Speed 12 mph    
Max Gust Speed 22 mph    
Visibility 10 miles    
Events      
Averages and records for this station are not official NWS values.
T = Trace of Precipitation, MM = Missing Value Source: NWS Daily Summary

Daily Weather History Graph

Daily Weather History Graph

Search for Another Location

Airport or City:

Trip Planner

Search our weather history database for the weather conditions in past years. The results will help you decide how hot, cold, wet, or windy it might be!

Date:

Astronomy

Jan. 23, 2013 Rise Set
Actual Time 7:04 AM EST 4:37 PM EST
Civil Twilight 6:33 AM EST 5:08 PM EST
Nautical Twilight 5:58 AM EST 5:43 PM EST
Astronomical Twilight 5:24 AM EST 6:18 PM EST
Moon 1:43 PM EST (1/23) 4:15 AM EST (1/23)
Length of Visible Light 10h 35m
Length of Day
9h 32m
Waxing Gibbous, 89% of the Moon is Illuminated
Jan 23
Waxing Gibbous
Jan 26
Full
Feb 3
Last Quarter
Feb 10
New
Feb 17
First Quarter

Hourly Weather History & Observations

Time (EST) Temp. Windchill Dew Point Humidity Pressure Visibility Wind Dir Wind Speed Gust Speed Precip Events Conditions
12:53 AM 7.0 °F - -16.1 °F 34% 30.03 in 10.0 mi Calm Calm - N/A   Clear
1:53 AM 5.0 °F - -15.0 °F 39% 30.04 in 10.0 mi Calm Calm - N/A   Clear
2:53 AM 3.9 °F -5.3 °F -15.0 °F 41% 30.04 in 10.0 mi WNW 4.6 mph - N/A   Clear
3:53 AM 3.0 °F -8.0 °F -16.1 °F 41% 30.04 in 10.0 mi Variable 5.8 mph - N/A   Clear
4:53 AM 1.9 °F -9.2 °F -17.0 °F 41% 30.06 in 10.0 mi WNW 5.8 mph - N/A   Clear
5:53 AM 1.0 °F -11.7 °F -17.0 °F 43% 30.06 in 10.0 mi Variable 6.9 mph - N/A   Clear
6:53 AM -0.0 °F -9.9 °F -18.9 °F 41% 30.08 in 10.0 mi Variable 4.6 mph - N/A   Clear
7:53 AM 1.0 °F -11.7 °F -20.0 °F 37% 30.09 in 10.0 mi Variable 6.9 mph - N/A   Clear
8:53 AM 1.0 °F -12.9 °F -20.9 °F 35% 30.09 in 10.0 mi West 8.1 mph 21.9 mph N/A   Clear
9:53 AM 1.9 °F -13.8 °F -20.0 °F 35% 30.10 in 10.0 mi NW 10.4 mph 20.7 mph N/A   Clear
10:53 AM 3.0 °F -10.5 °F -20.0 °F 34% 30.08 in 10.0 mi West 8.1 mph - N/A   Clear
11:53 AM 3.9 °F -8.2 °F -20.0 °F 32% 30.05 in 10.0 mi Variable 6.9 mph - N/A   Clear
12:53 PM 6.1 °F -8.7 °F -20.0 °F 29% 30.04 in 10.0 mi West 10.4 mph 19.6 mph N/A   Clear
1:53 PM 5.0 °F -10.8 °F -20.9 °F 29% 30.04 in 10.0 mi WNW 11.5 mph 17.3 mph N/A   Clear
2:53 PM 6.1 °F -7.8 °F -20.9 °F 28% 30.04 in 10.0 mi WNW 9.2 mph 18.4 mph N/A   Clear
3:53 PM 5.0 °F -2.1 °F -20.0 °F 31% 30.05 in 10.0 mi Variable 3.5 mph - N/A   Clear
4:53 PM 3.9 °F -6.9 °F -20.0 °F 32% 30.06 in 10.0 mi Variable 5.8 mph - N/A   Clear
5:53 PM 3.0 °F -4.4 °F -20.0 °F 34% 30.08 in 10.0 mi Variable 3.5 mph - N/A   Clear
6:53 PM 1.9 °F -7.6 °F -18.9 °F 37% 30.09 in 10.0 mi Variable 4.6 mph - N/A   Clear
7:53 PM 1.0 °F -11.7 °F -20.0 °F 37% 30.08 in 10.0 mi Variable 6.9 mph - N/A   Clear
8:53 PM 1.0 °F -10.3 °F -20.0 °F 37% 30.08 in 10.0 mi Variable 5.8 mph - N/A   Clear
10:53 PM -0.0 °F -11.6 °F -20.0 °F 39% 30.07 in 10.0 mi West 5.8 mph - N/A   Clear
11:53 PM -0.9 °F - -18.9 °F 42% 30.07 in 10.0 mi Calm Calm - N/A   Clear